Simultaneous Nadir Overpasses (SNOs) Predictions

Prediction of SNOs between GOES-16 and NOAA-19 Satellite Orbit:

Table of predicted SNOs for the next 14.0 days since TLE Epoch: 2/14/2025
Index Date Time (GOES-16) GOES-16 Lat,Lon NOAA-19 Lat,Lon Distance(km) Time Diff (sec)
1 02/15/2025 14:44:03 0.02, -75.21 0.33, -76.54 151.87 80
2 02/16/2025 14:34:11 0.02, -75.22 -0.38, -73.50 196.50 80
3 02/19/2025 02:53:00 -0.02, -75.20 -0.64, -77.99 317.82 80
4 02/20/2025 02:37:47 -0.02, -75.21 0.03, -74.94 30.85 80
5 02/21/2025 02:25:14 -0.01, -75.22 0.77, -71.90 379.53 80
6 02/22/2025 14:56:36 0.02, -75.27 0.96, -79.43 474.77 80
7 02/23/2025 14:44:02 0.01, -75.28 0.29, -76.38 126.15 80
8 02/24/2025 14:34:10 0.00, -75.29 -0.44, -73.33 222.86 80
9 02/27/2025 02:52:58 -0.00, -75.29 -0.56, -77.82 288.50 80
10 02/28/2025 02:37:44 -0.00, -75.30 0.13, -74.77 61.18 80
